Location: Unspecified
(0.0000°N, 0.0000°E)
Time: 17:17:17
(UTC+00:00)

Hubble Space Telescope - Pass Details

Date: 11 November 2017
Orbit: 537 x 541 km, 28.5° (Epoch: 16 November)

Event Time Altitude Azimuth Distance (km) Brightness Sun altitude
Exits shadow 04:09:32 59° 205° (SSW) 616 0.9 -22.5°
Maximum altitude 04:10:08 71° 150° (SSE) 563 0.9 -22.3°
Drops below altitude 10° 04:14:14 10° 65° (ENE) 1,778 4.0 -21.4°
Sets 04:16:30 0° 63° (ENE) 2,668 5.0 -20.8°
